TimeMST,TemperatureF,Dew PointF,Humidity,Sea Level PressureIn,VisibilityMPH,Wind Direction,Wind SpeedMPH,Gust SpeedMPH,PrecipitationIn,Events,Conditions,WindDirDegrees,DateUTC
12:55 AM,73.6,47.3,39,29.83,10.0,ESE,3.5,-,N/A,,Clear,120,2012-10-09 07:55:00
1:55 AM,72.0,49.6,45,29.83,10.0,Calm,Calm,-,N/A,,Clear,0,2012-10-09 08:55:00
2:55 AM,71.1,48.7,45,29.83,10.0,Calm,Calm,-,N/A,,Clear,0,2012-10-09 09:55:00
3:55 AM,69.1,48.7,48,29.83,10.0,Calm,Calm,-,N/A,,Clear,0,2012-10-09 10:55:00
4:55 AM,69.4,48.2,47,29.84,10.0,Calm,Calm,-,N/A,,Clear,0,2012-10-09 11:55:00
5:55 AM,68.0,47.7,48,29.85,10.0,ESE,3.5,-,N/A,,Clear,120,2012-10-09 12:55:00
6:55 AM,66.4,46.9,50,29.88,10.0,NNW,6.9,-,N/A,,Clear,340,2012-10-09 13:55:00
7:55 AM,72.0,48.6,43,29.91,10.0,North,4.6,-,N/A,,Clear,350,2012-10-09 14:55:00
8:55 AM,76.6,50.2,39,29.92,10.0,Calm,Calm,-,N/A,,Clear,0,2012-10-09 15:55:00
9:26 AM,76.6,50.2,39,29.92,10.0,NNE,3.5,-,N/A,,Clear,20,2012-10-09 16:26:00
9:55 AM,81.7,51.3,35,29.91,10.0,NNE,5.8,-,N/A,,Clear,30,2012-10-09 16:55:00
10:55 AM,84.6,52.2,33,29.90,10.0,Calm,Calm,-,N/A,,Clear,0,2012-10-09 17:55:00
11:55 AM,86.4,50.2,29,29.88,10.0,Variable,4.6,-,N/A,,Clear,0,2012-10-09 18:55:00
12:55 PM,88.2,51.3,28,29.84,10.0,WNW,4.6,-,N/A,,Clear,290,2012-10-09 19:55:00
1:55 PM,89.6,52.9,28,29.81,10.0,Calm,Calm,-,N/A,,Clear,0,2012-10-09 20:55:00
2:55 PM,90.5,51.8,27,29.80,10.0,SE,6.9,-,N/A,,Clear,130,2012-10-09 21:55:00
3:55 PM,90.9,52.2,27,29.78,10.0,West,6.9,-,N/A,,Clear,260,2012-10-09 22:55:00
4:55 PM,90.1,50.2,25,29.77,10.0,West,3.5,-,N/A,,Clear,260,2012-10-09 23:55:00
5:55 PM,89.1,49.5,26,29.78,10.0,West,3.5,-,N/A,,Clear,260,2012-10-10 00:55:00
6:55 PM,85.5,50.2,29,29.80,10.0,Calm,Calm,-,N/A,,Clear,0,2012-10-10 01:55:00
7:55 PM,80.6,51.3,36,29.81,10.0,Calm,Calm,-,N/A,,Clear,0,2012-10-10 02:55:00
8:55 PM,78.8,50.5,37,29.83,10.0,NW,4.6,-,N/A,,Clear,310,2012-10-10 03:55:00
9:55 PM,77.5,47.7,35,29.84,10.0,Calm,Calm,-,N/A,,Clear,0,2012-10-10 04:55:00
10:55 PM,74.8,49.1,40,29.84,10.0,Calm,Calm,-,N/A,,Clear,0,2012-10-10 05:55:00
11:55 PM,74.3,47.7,39,29.85,10.0,SSW,3.5,-,N/A,,Clear,210,2012-10-10 06:55:00